Weather History for Akron Canton, OH

Change the Weather History Date:

Wednesday, August 7, 2013

  Actual Average Record
Temperature  
Mean Temperature 72 °F 71 °F  
Max Temperature 78 °F 81 °F 100 °F (1918)
Min Temperature 65 °F 62 °F 46 °F (1903)
Degree Days  
Heating Degree Days 0 0  
Month to date heating degree days 0 0  
Since 1 June heating degree days 32 55  
Since 1 July heating degree days 5 6  
Cooling Degree Days 7 7  
Month to date cooling degree days 28 49  
Year to date cooling degree days 567 448  
Since 1 June cooling degree days 461 406  
Growing Degree Days 20 (Base 50)    
Moisture  
Dew Point 65 °F    
Average Humidity 79    
Maximum Humidity 90    
Minimum Humidity 68    
Precipitation  
Precipitation 0.41 in 0.12 in 0.82 in (1958)
Month to date precipitation 0.85 0.85  
Year to date precipitation 26.13 24.49  
Snow  
Snow 0.00 in 0.00 in - ()
Month to date snowfall 0.0 0.0  
Since 1 June snowfall 0.0 0.0  
Since 1 July snowfall 0.0 0.0  
Snow Depth 0.00 in    
Sea Level Pressure  
Sea Level Pressure 29.95 in    
Wind  
Wind Speed 7 mph (South)    
Max Wind Speed 16 mph    
Max Gust Speed 21 mph    
Visibility 7 miles    
Events Rain , Thunderstorm    
T = Trace of Precipitation, MM = Missing Value Source: NWS Daily Summary

Daily Weather History Graph

Daily Weather History Graph

Search for Another Location

Airport:

Trip Planner

Search our weather history database for the weather conditions in past years. The results will help you decide how hot, cold, wet, or windy it might be!

Date:

Astronomy

Aug. 07, 2013 Rise Set
Actual Time 6:28 AM EDT 8:34 PM EDT
Civil Twilight 5:57 AM EDT 9:04 PM EDT
Nautical Twilight 5:20 AM EDT 9:41 PM EDT
Astronomical Twilight 4:40 AM EDT 10:21 PM EDT
Moon 7:16 AM EDT (8/7) 8:39 PM EDT (8/7)
Length of Visible Light 15h 06m
Length of Day
14h 06m
New Moon, 1% of the Moon is Illuminated
Aug 7
New Moon
Aug 14
First Quarter
Aug 20
Full
Aug 28
Last Quarter
Sep 5
New

Hourly Weather History & Observations

Time (EDT) Temp. Dew Point Humidity Pressure Visibility Wind Dir Wind Speed Gust Speed Precip Events Conditions
12:51 AM 68.0 °F 57.9 °F 70% 29.96 in 9.0 mi Calm Calm - N/A   Clear
1:51 AM 66.9 °F 59.0 °F 76% 29.96 in 9.0 mi South 4.6 mph - N/A   Clear
2:51 AM 66.0 °F 59.0 °F 78% 29.96 in 8.0 mi Calm Calm - N/A   Clear
3:51 AM 66.0 °F 60.1 °F 81% 29.95 in 8.0 mi SSE 5.8 mph - N/A   Scattered Clouds
4:51 AM 66.9 °F 60.1 °F 79% 29.95 in 9.0 mi SSE 4.6 mph - N/A   Overcast
5:51 AM 68.0 °F 60.1 °F 76% 29.94 in 9.0 mi South 6.9 mph - N/A   Overcast
6:51 AM 68.0 °F 60.1 °F 76% 29.93 in 8.0 mi SSE 9.2 mph - N/A   Mostly Cloudy
7:51 AM 69.1 °F 61.0 °F 75% 29.94 in 8.0 mi SSE 4.6 mph - N/A   Scattered Clouds
8:51 AM 72.0 °F 62.1 °F 71% 29.95 in 9.0 mi South 8.1 mph - N/A   Mostly Cloudy
9:51 AM 73.0 °F 63.0 °F 71% 29.96 in 10.0 mi South 6.9 mph - N/A   Overcast
10:51 AM 73.9 °F 64.9 °F 73% 29.96 in 10.0 mi SSW 10.4 mph - N/A   Overcast
11:29 AM 77.0 °F 66.2 °F 69% 29.97 in 8.0 mi SSW 10.4 mph - N/A   Overcast
11:51 AM 77.0 °F 66.9 °F 71% 29.95 in 7.0 mi SSW 11.5 mph - N/A   Mostly Cloudy
12:51 PM 77.0 °F 68.0 °F 74% 29.94 in 7.0 mi SSW 10.4 mph - N/A   Overcast
1:41 PM 75.2 °F 68.0 °F 78% 29.97 in 5.0 mi SSW 9.2 mph - N/A   Haze
1:51 PM 77.0 °F 68.0 °F 74% 29.95 in 5.0 mi SW 8.1 mph - N/A   Haze
2:51 PM 73.0 °F 66.0 °F 79% 29.96 in 8.0 mi North 4.6 mph - 0.00 in Rain Light Rain
3:14 PM 71.6 °F 66.2 °F 83% 29.97 in 3.0 mi NE 6.9 mph - 0.02 in Rain , Thunderstorm Light Thunderstorms and Rain
3:41 PM 69.8 °F 66.2 °F 88% 30.01 in 2.0 mi West 12.7 mph - 0.07 in Thunderstorm Overcast
3:49 PM 68.0 °F 64.4 °F 88% 29.99 in 1.0 mi Calm Calm - 0.29 in Rain , Thunderstorm Heavy Thunderstorms and Rain
3:51 PM 68.0 °F 64.9 °F 90% 29.97 in 1.5 mi SSE 6.9 mph - 0.34 in Rain , Thunderstorm Heavy Thunderstorms and Rain
3:59 PM 68.0 °F 66.2 °F 94% 29.97 in 2.0 mi Calm Calm - 0.07 in Rain , Thunderstorm Thunderstorms and Rain
4:11 PM 71.6 °F 66.2 °F 83% 29.96 in 10.0 mi SSE 4.6 mph - 0.07 in Thunderstorm Thunderstorm
4:51 PM 73.9 °F 69.1 °F 85% 29.91 in 9.0 mi SSE 10.4 mph - 0.07 in Thunderstorm Thunderstorm
5:06 PM 73.4 °F 68.0 °F 83% 29.93 in 9.0 mi SSE 8.1 mph - N/A   Overcast
5:51 PM 77.0 °F 66.9 °F 71% 29.90 in 10.0 mi South 3.5 mph - N/A   Overcast
6:51 PM 75.9 °F 69.1 °F 79% 29.92 in 8.0 mi South 6.9 mph - N/A   Overcast
7:51 PM 75.0 °F 69.1 °F 82% 29.93 in 9.0 mi SSE 10.4 mph - N/A   Overcast
8:51 PM 73.0 °F 69.1 °F 87% 29.92 in 7.0 mi South 10.4 mph - N/A   Overcast
9:51 PM 72.0 °F 68.0 °F 87% 29.94 in 8.0 mi South 8.1 mph - N/A   Overcast
10:51 PM 72.0 °F 68.0 °F 87% 29.95 in 8.0 mi SSE 9.2 mph - N/A   Overcast
11:51 PM 72.0 °F 68.0 °F 87% 29.95 in 7.0 mi South 8.1 mph - N/A   Overcast